Regional Weather Roundup
Issued by NWS Albany, NY

Home | Current Version | Previous Version | Text Only | Print | Product List | Glossary On
Versions: 1 2 3 4 5 6 7 8 9 10 11 12 13 14 15 16 17 18 19 20 21 22 23 24 25 26 27 28 29 30 31 32 33 34 35 36 37 38 39 40 41 42 43 44 45 46 47 48 49 50
000
ASUS41 KALY 302210
RWRALY

NEW YORK STATE HOURLY WEATHER ROUNDUP
NATIONAL WEATHER SERVICE ALBANY NY
600 PM EDT WED JUL 30 2014

NOTE: "FAIR" INDICATES FEW OR NO CLOUDS BELOW 12,000 FEET WITH NO
SIGNIFICANT WEATHER AND/OR NO OBSTRUCTIONS TO VISIBILITY.

NYZ032-033-038>043-046>054-057>066-NYZ062>081-302300-
EAST


CITY           SKY/WX    TMP DP  RH WIND       PRES   REMARKS
ALBANY         PTSUNNY   74  54  49 S8        29.99R
GLENS FALLS    MOSUNNY   74  53  48 S12       29.97S
POUGHKEEPSIE   SUNNY     77  51  40 SW8       29.98F
NEWBURGH       MOSUNNY   75  57  53 W7        30.01F
MONTGOMERY     MOSUNNY   76  53  44 SW8       30.00S
WHITE PLAINS   MOSUNNY   76  48  37 W3        30.00S
ISLIP          MOSUNNY   77  51  40 S8        30.00S
NEW YORK CITY  PTSUNNY   79  50  36 SW15      29.99F
CENTRAL PARK   PTSUNNY   78  51  38 W5        30.02F
$$

NYZ005>009-017-018-044>046-055-056-302300-
CENTRAL


CITY           SKY/WX    TMP DP  RH WIND       PRES   REMARKS
FULTON         CLOUDY    63  57  82 CALM      29.96F
SYRACUSE       TSTM      64  56  75 W9        29.98R
ROME           PTSUNNY   72  56  57 S7        29.97S
ELMIRA         MOSUNNY   71  55  56 SW10      29.98R
BINGHAMTON     SUNNY     69  55  60 SW9       30.01S
MONTICELLO     PTSUNNY   70  54  56 SW6       30.04S
$$

NYZ026>034-041>043-302300-
NORTH


CITY           SKY/WX    TMP DP  RH WIND       PRES   REMARKS
WATERTOWN      PTSUNNY   73  57  57 SW9       29.93F
FORT DRUM      NOT AVBL
MASSENA        MOSUNNY   69  56  62 NW8       29.94S
SARANAC LAKE   PTSUNNY   68  50  52 SW9       29.97S
PLATTSBURGH    PTSUNNY   71  55  56 S9        29.94R
$$

NYZ001>004-010>016-019>021-302300-
WEST


CITY           SKY/WX    TMP DP  RH WIND       PRES   REMARKS
NIAGARA FALLS  PTSUNNY   63  55  77 S6        29.95F
BUFFALO        PTSUNNY   64  56  75 N6        29.97R
DUNKIRK        MOSUNNY   69  59  70 W15G22    29.98S
JAMESTOWN      PTSUNNY   63  55  77 SW5       30.01S
WELLSVILLE     CLOUDY    66  56  70 SW7       30.04R
ROCHESTER      PTSUNNY   65  60  84 W6        29.97R
PENN YAN       TSTM      60  57  89 VRB6      29.99R VSB 3/4
$$

             KEY
       WCI = WIND CHILL INDEX
       VSB = VISIBILITY
       HX  = HEAT INDEX
$$



USA.gov is the U.S. government's official web portal to all federal, state and local government web resources and services.